Weather History for KJWY - October, 2012

Change the Weather History Date:

Tuesday, October 9, 2012

  Actual Average (KRBD) Record (KRBD)
Temperature  
Mean Temperature 64 °F -  
Max Temperature 78 °F 77 °F 93 °F (2014)
Min Temperature 50 °F 57 °F 39 °F (2000)
Degree Days  
Heating Degree Days 1    
Growing Degree Days 14 (Base 50)    
Moisture  
Dew Point 56 °F    
Average Humidity 68    
Maximum Humidity 87    
Minimum Humidity 51    
Precipitation  
Precipitation 0.00 in - - ()
Sea Level Pressure  
Sea Level Pressure 29.97 in    
Wind  
Wind Speed 10 mph (SSE)    
Max Wind Speed 22 mph    
Max Gust Speed 28 mph    
Visibility 10 miles    
Events      
Averages and records for this station are not official NWS values.
T = Trace of Precipitation, MM = Missing Value Source: NWS Daily Summary

Daily Weather History Graph

Daily Weather History Graph

Search for Another Location

Airport or City:

Trip Planner

Search our weather history database for the weather conditions in past years. The results will help you decide how hot, cold, wet, or windy it might be!

Date:

Astronomy

Oct. 09, 2012 Rise Set
Actual Time 7:27 AM CDT 7:01 PM CDT
Civil Twilight 7:02 AM CDT 7:26 PM CDT
Nautical Twilight 6:34 AM CDT 7:54 PM CDT
Astronomical Twilight 6:05 AM CDT 8:22 PM CDT
Moon 1:24 AM CDT (10/9) 3:11 PM CDT (10/9)
Length of Visible Light 12h 23m
Length of Day
11h 33m
Last Quarter, 36% of the Moon is Illuminated
Oct 9
Last Quarter
Oct 15
New
Oct 21
First Quarter
Oct 29
Full
Nov 6
Last Quarter

Hourly Weather History & Observations

Time (CDT) Temp. Dew Point Humidity Pressure Visibility Wind Dir Wind Speed Gust Speed Precip Events Conditions
3:55 AM 50.0 °F 46.4 °F 87% 30.05 in 10.0 mi SE 3.5 mph - N/A   Overcast
4:15 AM 51.8 °F 46.4 °F 82% 30.05 in 10.0 mi SE 5.8 mph - N/A   Overcast
4:35 AM 51.8 °F 46.4 °F 82% 30.04 in 10.0 mi SE 6.9 mph - N/A   Overcast
5:15 AM 51.8 °F 46.4 °F 82% 30.03 in 10.0 mi SE 5.8 mph - N/A   Overcast
5:35 AM 53.6 °F 46.4 °F 77% 30.03 in 10.0 mi SE 5.8 mph - N/A   Overcast
8:15 AM 55.4 °F 50.0 °F 82% 30.05 in 10.0 mi SSE 10.4 mph - N/A   Overcast
8:35 AM 55.4 °F 50.0 °F 82% 30.05 in 10.0 mi SE 6.9 mph - N/A   Overcast
9:15 AM 55.4 °F 50.0 °F 82% 30.05 in 10.0 mi SE 8.1 mph - N/A   Overcast
9:35 AM 59.0 °F 50.0 °F 72% 30.05 in 10.0 mi SE 10.4 mph - N/A   Overcast
9:55 AM 59.0 °F 51.8 °F 77% 30.05 in 10.0 mi SE 10.4 mph 16.1 mph N/A   Overcast
10:15 AM 60.8 °F 51.8 °F 72% 30.05 in 10.0 mi SSE 13.8 mph 18.4 mph N/A   Overcast
10:35 AM 62.6 °F 51.8 °F 68% 30.05 in 10.0 mi SSE 13.8 mph 19.6 mph N/A   Overcast
10:55 AM 62.6 °F 51.8 °F 68% 30.04 in 10.0 mi SSE 16.1 mph 21.9 mph N/A   Overcast
12:15 PM 64.4 °F 53.6 °F 68% 30.02 in 10.0 mi South 13.8 mph - N/A   Overcast
12:35 PM 64.4 °F 53.6 °F 68% 30.00 in 10.0 mi South 13.8 mph 19.6 mph N/A   Overcast
1:15 PM 68.0 °F 55.4 °F 64% 29.99 in 10.0 mi South 16.1 mph 20.7 mph N/A   Overcast
1:35 PM 68.0 °F 55.4 °F 64% 29.98 in 10.0 mi South 15.0 mph - N/A   Overcast
1:55 PM 68.0 °F 55.4 °F 64% 29.96 in 10.0 mi South 16.1 mph - N/A   Overcast
2:15 PM 69.8 °F 55.4 °F 60% 29.95 in 10.0 mi South 12.7 mph - N/A   Overcast
2:35 PM 71.6 °F 57.2 °F 60% 29.94 in 10.0 mi South 15.0 mph 19.6 mph N/A   Overcast
3:55 PM 77.0 °F 59.0 °F 54% 29.90 in 10.0 mi South 17.3 mph 26.5 mph N/A   Scattered Clouds
4:15 PM 77.0 °F 59.0 °F 54% 29.89 in 10.0 mi South 17.3 mph - N/A   Scattered Clouds
4:35 PM 78.8 °F 59.0 °F 51% 29.89 in 10.0 mi South 18.4 mph 26.5 mph N/A   Clear
4:55 PM 78.8 °F 59.0 °F 51% 29.88 in 10.0 mi South 21.9 mph 25.3 mph N/A   Clear
5:15 PM 78.8 °F 60.8 °F 54% 29.88 in 10.0 mi SSW 18.4 mph 27.6 mph N/A   Clear
5:35 PM 78.8 °F 60.8 °F 54% 29.88 in 10.0 mi South 17.3 mph 25.3 mph N/A   Clear
5:55 PM 78.8 °F 60.8 °F 54% 29.87 in 10.0 mi South 13.8 mph - N/A   Clear
6:15 PM 78.8 °F 60.8 °F 54% 29.88 in 10.0 mi South 12.7 mph 17.3 mph N/A   Clear
6:55 PM 77.0 °F 60.8 °F 57% 29.89 in 10.0 mi SSE 6.9 mph - N/A   Clear
7:15 PM 73.4 °F 60.8 °F 65% 29.89 in 10.0 mi SSE 8.1 mph - N/A   Clear
7:35 PM 73.4 °F 60.8 °F 65% 29.90 in 10.0 mi SSE 6.9 mph - N/A   Clear
7:55 PM 71.6 °F 60.8 °F 69% 29.90 in 10.0 mi SSE 5.8 mph - N/A   Clear
8:15 PM 71.6 °F 60.8 °F 69% 29.92 in 10.0 mi SSE 4.6 mph - N/A   Clear
8:35 PM 71.6 °F 60.8 °F 69% 29.92 in 10.0 mi SSE 9.2 mph - N/A   Clear
8:55 PM 71.6 °F 60.8 °F 69% 29.93 in 10.0 mi South 8.1 mph - N/A   Clear
9:15 PM 69.8 °F 60.8 °F 73% 29.93 in 10.0 mi South 9.2 mph - N/A   Clear
9:35 PM 69.8 °F 60.8 °F 73% 29.93 in 10.0 mi South 11.5 mph - N/A   Clear
10:15 PM 69.8 °F 60.8 °F 73% 29.95 in 10.0 mi South 8.1 mph - N/A   Clear
10:35 PM 69.8 °F 60.8 °F 73% 29.97 in 10.0 mi South 5.8 mph - N/A   Clear
10:55 PM 69.8 °F 60.8 °F 73% 29.97 in 10.0 mi South 6.9 mph - N/A   Clear
11:15 PM 69.8 °F 60.8 °F 73% 29.98 in 10.0 mi South 5.8 mph - N/A   Clear
11:35 PM 69.8 °F 60.8 °F 73% 29.98 in 10.0 mi South 5.8 mph - N/A   Clear
11:55 PM 69.8 °F 60.8 °F 73% 29.98 in 10.0 mi SSE 3.5 mph - N/A   Clear